This is the latest recevied weather packets stored in our database for station/object PA0HHN. If no packets are shown the sender has not sent any weather packets the latest 10 day(s).
| Time | Temp. | Humidity | Pressure | Rain* | Wind** | Luminosity | Snow |
|---|---|---|---|---|---|---|---|
| 1787998501 | 21.11° C | 82% | 1002.8 hPa | - | - | - | - |
| 1787997601 | 20° C | 83% | 1003 hPa | - | - | - | - |
| 1787996703 | 20° C | 84% | 1003 hPa | - | - | - | - |
| 1787995800 | 18.89° C | 87% | 1002.7 hPa | - | - | - | - |
| 1787994902 | 17.78° C | 92% | 1002.7 hPa | - | - | - | - |
| 1787994001 | 17.22° C | 94% | 1002.4 hPa | - | - | - | - |
| 1787993101 | 17.22° C | 96% | 1002.4 hPa | - | - | - | - |
| 1787992203 | 17.22° C | 97% | 1002.6 hPa | - | - | - | - |
| 1787991301 | 16.11° C | 98% | 1002.3 hPa | - | - | - | - |
| 1787990403 | 16.11° C | 98% | 1002.1 hPa | - | - | - | - |
| 1787989502 | 16.11° C | 97% | 1002.1 hPa | - | - | - | - |
| 1787988602 | 17.22° C | 93% | 1002 hPa | - | - | - | - |
| 1787987700 | 17.22° C | 90% | 1001.7 hPa | - | - | - | - |
| 1787986802 | 17.22° C | 90% | 1001.9 hPa | - | - | - | - |
| 1787985902 | 17.22° C | 90% | 1001.8 hPa | - | - | - | - |
| 1787985002 | 16.11° C | 92% | 1001.7 hPa | - | - | - | - |
| 1787984101 | 16.11° C | 94% | 1001.3 hPa | - | - | - | - |
| 1787983200 | 16.11° C | 94% | 1001.4 hPa | - | - | - | - |
| 1787982300 | 16.11° C | 93% | 1001.3 hPa | - | - | - | - |
| 1787981401 | 16.11° C | 94% | 1001.4 hPa | - | - | - | - |
| 1787980501 | 16.11° C | 94% | 1001.3 hPa | - | - | - | - |
| 1787979600 | 16.11° C | 94% | 1001.1 hPa | - | - | - | - |
| 1787978701 | 16.11° C | 93% | 1001.3 hPa | - | - | - | - |
| 1787977801 | 16.11° C | 93% | 1001.4 hPa | - | - | - | - |
| 1787976901 | 16.11° C | 93% | 1001.6 hPa | - | - | - | - |
* Rain since midnight (hover to see other rain measurements)
** Current wind speed in m/s (hover to see current wind gust speed)